VK1ET-13 Weather Reports


Display with metric or nautical units.
time (UTC)temp
F
wind
direction
speed
MPH
gust
MPH
rain 1hr
in
rain 24hr
in
rain mn
in
humidity
%
barometer
mb
20260903013028 61 306 10.0 19.0 0.00 0.00 0.00 51 1012.3
20260903012033 61 300 10.0 17.0 0.00 0.00 0.00 52 1012.2
20260903011020 61 271 7.0 13.0 0.00 0.00 0.00 53 1012.2
20260903010033 61 280 6.0 15.0 0.00 0.00 0.00 53 1012.0
20260903005033 61 301 10.0 17.0 0.00 0.00 0.00 53 1011.9
20260903004019 61 287 9.0 17.0 0.00 0.00 0.00 53 1012.0
20260903003031 61 272 9.0 16.0 0.00 0.00 0.00 54 1011.9
20260903002029 60 261 6.0 14.0 0.00 0.00 0.00 56 1012.0
20260903001033 60 265 9.0 15.0 0.00 0.00 0.00 56 1011.9
20260903000018 60 269 7.0 12.0 0.00 0.00 0.00 59 1011.9
20260902235025 60 266 9.0 19.0 0.00 0.00 0.00 60 1011.8
20260902234031 60 257 10.0 17.0 0.00 0.00 0.00 58 1011.6
20260902233016 60 235 8.0 16.0 0.00 0.00 0.00 62 1011.6
20260902232035 60 238 9.0 18.0 0.00 0.00 0.00 63 1011.4
20260902231028 60 239 9.0 15.0 0.00 0.00 0.00 64 1011.2
20260902230034 57 247 10.0 21.0 0.00 0.00 0.00 64 1011.2
20260902225018 57 243 11.0 16.0 0.00 0.00 0.00 65 1011.2
20260902224017 58 253 10.0 20.0 0.00 0.00 0.00 67 1010.8
20260902222017 58 259 8.0 15.0 0.00 0.00 0.00 69 1010.7
20260902221021 58 250 8.0 15.0 0.00 0.00 0.00 72 1010.7
20260902220027 57 261 8.0 16.0 0.00 0.00 0.00 74 1010.6
20260902215037 57 255 8.0 17.0 0.00 0.00 0.00 74 1010.4
20260902214022 57 255 9.0 16.0 0.00 0.00 0.00 78 1010.2
20260902213035 57 253 8.0 13.0 0.00 0.00 0.00 81 1009.7
20260902212041 55 257 5.0 10.0 0.00 0.00 0.00 87 1009.8
20260902211019 55 282 5.0 8.0 0.00 0.00 0.00 89 1009.9
20260902210027 55 320 4.0 7.0 0.00 0.00 0.00 91 1009.8
20260902204029 54 324 2.0 4.0 0.00 0.00 0.00 95 1009.5
20260902203035 53 14 1.0 4.0 0.00 0.00 0.00 96 1009.5
20260902202036 53 293 1.0 2.0 0.00 0.00 0.00 96 1009.4
20260902201031 53 304 1.0 3.0 0.00 0.00 0.00 96 1009.4
20260902200032 53 358 1.0 3.0 0.00 0.00 0.00 96 1009.3
20260902195021 53 23 0.0 2.0 0.00 0.00 0.00 96 1009.1
20260902194018 53 354 1.0 3.0 0.00 0.00 0.00 96 1008.9
20260902193026 53 326 1.0 4.0 0.00 0.00 0.00 96 1008.9
20260902192033 53 307 2.0 6.0 0.00 0.00 0.00 96 1009.0
20260902191021 53 355 2.0 5.0 0.00 0.00 0.00 97 1008.9
20260902190030 53 338 2.0 4.0 0.00 0.00 0.00 96 1008.7
20260902185017 53 4 2.0 5.0 0.00 0.00 0.00 96 1008.4
20260902184032 53 8 4.0 7.0 0.00 0.00 0.00 96 1008.2
20260902183032 53 357 2.0 4.0 0.00 0.00 0.00 96 1008.6
20260902182020 54 359 2.0 4.0 0.00 0.00 0.00 96 1008.5
20260902181028 54 3 2.0 4.0 0.00 0.00 0.00 95 1008.5
20260902180036 54 7 3.0 6.0 0.00 0.00 0.00 95 1008.9
20260902175027 54 351 3.0 6.0 0.00 0.00 0.00 95 1008.9
20260902174039 54 257 2.0 4.0 0.00 0.00 0.00 96 1008.9
20260902173020 54 302 1.0 4.0 0.00 0.00 0.00 96 1008.7
20260902172028 54 0 1.0 3.0 0.00 0.00 0.00 96 1008.9
20260902171016 54 8 2.0 5.0 0.00 0.00 0.00 96 1009.0
20260902170031 54 2 2.0 5.0 0.00 0.00 0.00 96 1009.1
20260902165033 54 7 3.0 6.0 0.00 0.00 0.00 96 1009.7
20260902164020 54 1 2.0 6.0 0.00 0.00 0.00 95 1010.1
20260902163030 54 354 2.0 5.0 0.00 0.00 0.00 95 1010.3
20260902162017 54 5 3.0 6.0 0.00 0.00 0.00 95 1010.4
20260902161032 54 7 2.0 4.0 0.00 0.00 0.00 95 1010.4
20260902160033 54 335 2.0 4.0 0.00 0.00 0.00 94 1010.9
20260902155022 54 12 3.0 5.0 0.00 0.00 0.00 94 1010.7
20260902154029 54 13 2.0 4.0 0.00 0.00 0.00 94 1011.2
20260902153017 54 350 3.0 6.0 0.00 0.00 0.00 94 1011.4
20260902152024 54 360 1.0 4.0 0.00 0.00 0.00 94 1011.1
20260902151030 54 356 1.0 4.0 0.00 0.00 0.00 94 1010.7
20260902150016 55 325 1.0 2.0 0.00 0.00 0.00 93 1011.0
20260902145023 55 8 1.0 2.0 0.00 0.00 0.00 93 1010.9
20260902144039 55 335 1.0 3.0 0.00 0.00 0.00 93 1011.4
20260902143036 55 336 1.0 3.0 0.00 0.00 0.00 92 1011.4
20260902142022 55 27 1.0 4.0 0.00 0.00 0.00 92 1011.9
20260902141028 55 356 1.0 3.0 0.00 0.00 0.00 91 1012.2
20260902140033 55 336 1.0 4.0 0.00 0.00 0.00 91 1012.2
20260902135019 56 352 2.0 5.0 0.00 0.00 0.00 89 1012.6
20260902134024 56 323 2.0 5.0 0.00 0.00 0.00 88 1012.9
20260902133030 57 286 4.0 8.0 0.00 0.00 0.00 86 1013.1
20260902132036 57 317 5.0 13.0 0.00 0.00 0.00 85 1013.3
20260902131034 57 325 4.0 8.0 0.00 0.00 0.00 86 1013.2
20260902130027 57 328 3.0 6.0 0.00 0.00 0.00 84 1013.2
20260902125021 58 305 4.0 6.0 0.00 0.00 0.00 81 1013.2
20260902123522 56 309 3.0 5.0 0.00 0.00 0.00 83 1013.0
20260902123036 55 297 1.0 3.0 0.00 0.00 0.00 85 1013.0
20260902120530 56 67 0.0 2.0 0.00 0.00 0.00 83 1013.2
20260902115531 57 151 0.0 1.0 0.00 0.00 0.00 82 1013.0
20260902114530 57 340 1.0 2.0 0.00 0.00 0.00 81 1013.1
20260902113519 57 138 1.0 1.0 0.00 0.00 0.00 81 1013.3
20260902113501 57 214 0.0 2.0 0.00 0.00 0.00 81 1013.3
20260902101048 63 295 5.0 7.0 0.00 0.00 0.00 75 1013.8
20260902100058 63 311 3.0 5.0 0.00 0.00 0.00 74 1013.5